TITAN 3C TRANSTAGE DEB, 3462

Orbit data source: Space-Track

TITAN 3C TRANSTAGE DEB, 3462 is space debris in LEO originally from a launch on Fri, 15 Oct 1965 UTC launched from the Air Force Eastern Test Range (AFETR). Debris objects in space refer to the collection of defunct objects orbiting the Earth. Examples of debris include non-operational satellites, rocket bodies, and fragments generated from explosions, collisions, or faulty payload assembly.

Loading next visibility...
Identifier
3462, 1965-082PT
Orbit
LEO
Country
Flag of USUS
Related business
Manufacturer
Unknown
Mission
Spacecraft
Bus & Motor
Unknown
Mass
Unknown
Launch date (UTC)
1965-10-15 (61 years ago)
Launch vehicle
Unknown
Launch site
Air Force Eastern Test Range (AFETR)
Object type
Payload
Rocket body
Debris
Shape & HBR
Unknown shape, 0.1 m
Radar Cross Section
Medium (>0.1 m² and <1 m²)

Expand to show TLE details & history
Last TLE update: 15 hours ago

TLE from 15 hours ago
0 TITAN 3C TRANSTAGE DEB
1 03462U 65082PT  26236.69530167  .00008749  00000-0  27396-3 0  9990
2 03462  32.0277 227.8471 0009447  61.0868 299.0742 15.31813471274024
Epoch: 2026-08-24T16:41Z
TLE epoch observation values (Epoch: 2026-08-24T16:41:14.064Z)
Latitude
-0.00001°
Longitude
4.56517°
Altitude
465.861 km
Speed
7.638 km/s
True Right ascension
15h 11m 23s
True Declination
0° 00' 00"
Sunlit
Object was in daylight at epoch
Visualization orbit readout
Latitude
Unknown
Longitude
Unknown
Altitude
Unknown
Speed
Unknown
Apparent Right ascension
Unknown
Apparent Declination
Unknown
Sunlit
N/A
Visualization observer readout
Local Sidereal Time
23:02:54
Azimuth
Unknown
Elevation
Unknown
Doppler factor
Unknown
Orbital elements
Apogee altitude
480.599 km
Perigee altitude
467.652 km
Semi-major axis
6,852.262 km
Eccentricity
0.00094
Inclination
32.0277°
RAAN
227.8471°
Arg. of periapsis
61.0868°
True anomaly
298.97953°
Mean anomaly
299.0742°
Eccentric anomaly
299.02687°
Mean motion
3.82642 °/min
Orbital period
94.08 mins
BSTAR
0.00027396

Documentation

Showing up to 5 results
|